This is the latest recevied weather packets stored in our database for station/object WE1C. If no packets are shown the sender has not sent any weather packets the latest 10 day(s).
| Time | Temp. | Humidity | Pressure | Rain* | Wind** | Luminosity | Snow |
|---|---|---|---|---|---|---|---|
| 1777719642 | 7.22° C | 98% | 1041.2 hPa | 3.05 mm | - | 4 W/m² | - |
| 1777719339 | 7.22° C | 97% | 1040.9 hPa | 0 mm | - | 4 W/m² | - |
| 1777719037 | 7.22° C | 97% | 1041.2 hPa | 0 mm | - | 5 W/m² | - |
| 1777718734 | 6.67° C | 97% | 1040.7 hPa | 1.27 mm | - | 10 W/m² | - |
| 1777718432 | 6.67° C | 97% | 1040.4 hPa | 1.27 mm | - | 8 W/m² | - |
| 1777718129 | 6.67° C | 96% | 1040.3 hPa | 0 mm | - | 4 W/m² | - |
| 1777717827 | 6.67° C | 96% | 1040.6 hPa | 0 mm | - | 4 W/m² | - |
| 1777717523 | 6.67° C | 96% | 1040.6 hPa | 0 mm | - | 2 W/m² | - |
| 1777717220 | 6.67° C | 95% | 1040.5 hPa | 0 mm | - | 1 W/m² | - |
| 1777716918 | 6.67° C | 95% | 1040.5 hPa | 0 mm | - | 3 W/m² | - |
| 1777716616 | 6.67° C | 95% | 1040.4 hPa | 0 mm | - | 2 W/m² | - |
| 1777716314 | 6.67° C | 95% | 1040.3 hPa | 0 mm | - | 2 W/m² | - |
| 1777716012 | 6.67° C | 94% | 1040.3 hPa | 0 mm | - | 0 W/m² | - |
| 1777715709 | 6.67° C | 94% | 1040.1 hPa | 0 mm | - | 1 W/m² | - |
| 1777715407 | 6.67° C | 94% | 1040.1 hPa | 0 mm | - | 0 W/m² | - |
| 1777715104 | 6.67° C | 93% | 1040.3 hPa | 0 mm | - | 0 W/m² | - |
| 1777714802 | 6.67° C | 93% | 1040.3 hPa | 0 mm | - | 0 W/m² | - |
| 1777714501 | 6.67° C | 92% | 1040.4 hPa | 0 mm | - | 0 W/m² | - |
| 1777714197 | 6.67° C | 92% | 1040.3 hPa | 0 mm | - | 0 W/m² | - |
| 1777713895 | 6.67° C | 92% | 1040.3 hPa | 0 mm | - | 0 W/m² | - |
| 1777713593 | 6.67° C | 91% | 1040.4 hPa | 0 mm | - | 0 W/m² | - |
| 1777713289 | 6.67° C | 91% | 1040.5 hPa | 0 mm | - | 0 W/m² | - |
| 1777712986 | 6.67° C | 90% | 1040.2 hPa | 1.27 mm | - | 0 W/m² | - |
| 1777712683 | 6.67° C | 90% | 1040.3 hPa | 1.27 mm | - | 0 W/m² | - |
| 1777712379 | 6.67° C | 89% | 1040.1 hPa | 0 mm | - | 0 W/m² | - |
* Rain latest hour (hover to see other rain measurements)
** Current wind speed in m/s (hover to see current wind gust speed)